Regional Weather Roundup
Issued by NWS

Home | Current Version | Previous Version | Graphics & Text | Print | Product List | Glossary On
Versions: 1 2 3 4 5 6 7 8 9 10 11 12 13 14 15 16 17 18 19 20 21 22 23 24 25 26 27 28 29 30 31 32 33 34 35 36 37 38 39 40 41 42 43 44 45 46 47 48 49 50
000
ASUS45 KCYS 191310
RWRWY

WYOMING REGIONAL WEATHER ROUNDUP
NATIONAL WEATHER SERVICE CHEYENNE WY
700 AM MDT TUE AUG 19 2014

NOTE:  "FAIR" INDICATES FEW OR NO CLOUDS BELOW 12,000 FEET
WITH NO SIGNIFICANT WEATHER AND/OR OBSTRUCTIONS TO VISIBILITY.

WYZ001-191400-
YELLOWSTONE NATIONAL PARK

CITY           SKY/WX    TMP DP  RH WIND       PRES   REMARKS
LK YELLOWSTONE   N/A     37  35  92 CALM      30.17F
W YELLOWSTONE  NOT AVBL

$$
WYZ002>013-054>058-071-098>099-191400-
NORTHERN WYOMING

CITY           SKY/WX    TMP DP  RH WIND       PRES   REMARKS
JACKSON        CLEAR     46  39  76 CALM      30.09R
CODY           CLEAR     57  39  51 S5        29.93S
GREYBULL       PTCLDY    56  45  66 CALM      29.88S
WORLAND        PTCLDY    54  44  69 CALM      29.89S
SHERIDAN       PTCLDY    53  47  79 CALM      29.86F
BUFFALO        PTCLDY    60  40  47 NW7       29.93S
GILLETTE       PTCLDY    64  49  57 CALM      29.91S
HULETT         FAIR      61  52  72 MISG      29.92
NEWCASTLE      FAIR      59  46  63 MISG      29.93

$$
WYZ014>020-022>026-101>103-191400-
CENTRAL WYOMING

CITY           SKY/WX    TMP DP  RH WIND       PRES   REMARKS
BIG PINEY      PTCLDY    47  36  65 NE3       30.12R
PINEDALE       MOSUNNY   41  36  81 MISG      30.13R
DUBOIS         FAIR      50  34  53 NW7       30.10S
LANDER         CLEAR     57  39  51 N3        29.97F
RIVERTON       PTCLDY    55  38  52 NW6       29.99R
CASPER         PTCLDY    50  40  68 W7        29.98R
DOUGLAS        PTCLDY    51  47  86 NW5       29.97R

$$
WYZ021-027>030-104>119-191400-
SOUTHERN WYOMING

CITY           SKY/WX    TMP DP  RH WIND       PRES   REMARKS
EVANSTON       MOCLDY    62  40  44 W13       30.11S
KEMMERER       CLOUDY    54  36  50 NW5       30.12S
FORT BRIDGER   FAIR      60  38  43 W5        30.12S
ROCK SPRINGS   CLOUDY    56  31  38 N5        30.07S
DIXON          FAIR      52  36  55 E3        30.11S
RAWLINS        PTCLDY    49  34  56 N3        30.09R
SARATOGA       FAIR      55  37  50 MISG      30.11S
LARAMIE        PTCLDY    49  39  68 S6        30.11F
CHEYENNE       PTCLDY    57  48  72 W6        30.03S
TORRINGTON     MOCLDY    58  54  86 E10       29.91F
PINE BLUFFS    FAIR      54  50  87 SW5       29.99S

$$



USA.gov is the U.S. government's official web portal to all federal, state and local government web resources and services.